User: anonymous   Login
Location: B�retswil
(47.3376°N, 8.8534°E)
Time: 12:33:31
(UTC+00:00)
Language:

Cosmos 968 Rocket - Orbit

View from above orbital plane
View from above orbital plane
View from above satellite
View from above satellite

Ground track
Ground track

The orbit data is extracted from the following two-line orbital elements,

1 10521U 77119B   21138.05698115 -.00000036  00000-0 -30152-5 0  9991
2 10521  74.0245 138.5927 0020684 165.8023 194.3719 14.40821433278329
Epoch (UTC): 18 May 2021 01:22:03
Eccentricity: 0.0020684
inclination: 74.0245°
perigee height: 741 km
apogee height: 770 km
right ascension of ascending node: 138.5927°
argument of perigee: 165.8023°
revolutions per day: 14.40821433
mean anomaly at epoch: 194.3719°
orbit number at epoch: 27832

The dashed part of the orbit path shows where the satellite is in the earth's shadow,  

DLR